This is the latest recevied weather packets stored in our database for station/object EA1CUE-WX. If no packets are shown the sender has not sent any weather packets the latest 10 day(s).
| Time | Temp. | Humidity | Pressure | Rain* | Wind** | Luminosity | Snow |
|---|---|---|---|---|---|---|---|
| 1778149426 | 14.44° C | 32% | 1008.4 hPa | 0 mm | - | - | - |
| 1778149126 | 14.44° C | 35% | 1008.5 hPa | 0 mm | - | - | - |
| 1778148826 | 14.44° C | 20% | 1008.4 hPa | 0 mm | - | - | - |
| 1778148526 | 13.89° C | 25% | 1008.5 hPa | 0 mm | - | - | - |
| 1778148226 | 13.89° C | 22% | 1008.5 hPa | 0 mm | - | - | - |
| 1778147927 | 13.89° C | 23% | 1008.5 hPa | 0 mm | - | - | - |
| 1778147626 | 13.89° C | 17% | 1008.5 hPa | 0 mm | - | - | - |
| 1778147326 | 13.33° C | 8% | 1008.5 hPa | 0 mm | - | - | - |
| 1778147026 | 12.78° C | 17% | 1008.6 hPa | 0 mm | - | - | - |
| 1778146726 | 13.33° C | 19% | 1008.5 hPa | 0 mm | - | - | - |
| 1778146426 | 13.33° C | 14% | 1008.6 hPa | 0 mm | - | - | - |
| 1778146126 | 13.33° C | 12% | 1008.7 hPa | 0 mm | - | - | - |
| 1778145826 | 12.78° C | 10% | 1008.6 hPa | 0 mm | - | - | - |
| 1778145527 | 12.78° C | 1% | 1008.7 hPa | 0 mm | - | - | - |
| 1778145226 | 12.22° C | 1% | 1008.6 hPa | 0 mm | - | - | - |
| 1778144926 | 12.22° C | 3% | 1008.6 hPa | 0 mm | - | - | - |
| 1778144626 | 12.22° C | 1% | 1008.7 hPa | 0 mm | - | - | - |
| 1778144326 | 11.67° C | 1% | 1008.6 hPa | 0 mm | - | - | - |
| 1778144026 | 11.67° C | 1% | 1008.6 hPa | 0 mm | - | - | - |
| 1778143726 | 11.67° C | 1% | 1008.6 hPa | 0 mm | - | - | - |
| 1778143426 | 11.67° C | 1% | 1008.6 hPa | 0 mm | - | - | - |
| 1778143126 | 11.11° C | 2% | 1008.6 hPa | 0 mm | - | - | - |
| 1778142826 | 11.67° C | 1% | 1008.6 hPa | 0 mm | - | - | - |
| 1778142527 | 11.67° C | 1% | 1008.6 hPa | 0 mm | - | - | - |
| 1778142226 | 11.11° C | 1% | 1008.6 hPa | 0 mm | - | - | - |
* Rain latest hour (hover to see other rain measurements)
** Current wind speed in m/s (hover to see current wind gust speed)